Regional Weather Roundup
Issued by NWS

Home | Current Version | Previous Version | Text Only | Print | Product List | Glossary On
Versions: 1 2 3 4 5 6 7 8 9 10 11 12 13 14 15 16 17 18 19 20 21 22 23 24 25 26 27 28 29 30 31 32 33 34 35 36 37 38 39 40 41 42 43 44 45 46 47 48 49 50
000
ASUS45 KABQ 052101
RWRNM
NEW MEXICO REGIONAL WEATHER ROUNDUP
NATIONAL WEATHER SERVICE ALBUQUERQUE NM
300 PM MDT SUN JUL 05 2015

NOTE: "FAIR" MEANS FEW OR NO CLOUDS BELOW 12,000 FEET AGL WITH NO
       SIGNIFICANT WEATHER OR OBSTRUCTIONS TO VISION.

      THIS PRODUCT IS RELEASED AS TWO VERSIONS.  ONE VERSION NEAR
      THE TOP OF THE HOUR CONTAINING PRELIMINARY DATA FROM ALBUQUERQUE
      AND OTHER STATIONS.  A FINAL VERSION WITH ADDITIONAL DATA IS
      ISSUED ABOUT 10 MINUTES AFTER THE HOUR.

NMZ501-503-504-510>518-052200-
NORTHWEST PLATEAU/NORTHCENTRAL MOUNTAINS

CITY           SKY/WX    TMP DP  RH WIND       PRES   REMARKS
FARMINGTON     MOSUNNY   84  51  31 W10G23    30.09F
SANTA FE       MOSUNNY   86  50  28 W20G25    30.12F
TAOS           PTSUNNY  N/A N/A N/A SW18      30.17F

$$
NMZ402-403-502-505>509-052200-
WESTCENTRAL MOUNTAINS/SOUTHWEST MOUNTAINS

CITY           SKY/WX    TMP DP  RH WIND       PRES   REMARKS
GALLUP         PTSUNNY   81  48  31 N8G18     30.18F
SILVER CITY      N/A     79  57  47 NW24      30.16S

$$
NMZ407-409-411-412-052200-
SOUTHERN DESERTS

CITY           SKY/WX    TMP DP  RH WIND       PRES   REMARKS
DEMING         MOSUNNY   86  60  41 W10       30.05F
HOLLOMAN AFB   MOSUNNY   91  55  28 S8        29.97F
ALAMOGORDO     MOSUNNY   93  54  26 SW7       30.00F
T OR C         CLOUDY    88  55  32 VRB7G23   30.04F

$$
NMZ519>523-052200-
CENTRAL VALLEYS/CENTRAL HIGHLANDS

CITY           SKY/WX    TMP DP  RH WIND       PRES   REMARKS
ALBUQUERQUE    PTSUNNY   88  53  30 NW22G28   30.07F
DOUBLE EAGLE   PTSUNNY   77  59  53 NW7       30.12F
MORIARTY ARPT    N/A     88  43  20 W8G17     30.13F
CLINES CORNERS PTSUNNY   79  48  33 W6G16     30.18F
BELEN          CLOUDY    87  49  26 E5        30.05S
SOCORRO        NOT AVBL

$$
NMZ524>526-539-540-052200-
SOUTHCENTRAL MOUNTAINS

CITY           SKY/WX    TMP DP  RH WIND       PRES   REMARKS
RUIDOSO        NOT AVBL

$$
NMZ527>531-052200-
NORTHEAST HIGHLANDS/NORTHEAST PLAINS

CITY           SKY/WX    TMP DP  RH WIND       PRES   REMARKS
LAS VEGAS      MOSUNNY   84  50  30 SW23G33   30.14F
RATON          PTSUNNY   81  58  45 S13       30.07F THUNDER
CLAYTON        MOSUNNY   94  56  27 S18G33    30.00F

$$
NMZ532>537-052200-
EASTCENTRAL PLAINS

CITY           SKY/WX    TMP DP  RH WIND       PRES   REMARKS
TUCUMCARI      MOSUNNY   95  53  24 S13G21    29.94F
CANNON AFB     MOSUNNY   90  57  33 S8        30.01F
CLOVIS AIRPORT MOSUNNY   90  59  35 S14G20      N/A

$$
NMZ028-029-538-052200-
SOUTHEAST PLAINS

CITY           SKY/WX    TMP DP  RH WIND       PRES   REMARKS
ROSWELL        MOSUNNY   97  58  27 S8G20     29.95F HX  96
ARTESIA        MOSUNNY   93  59  31 W18       29.97S
CARLSBAD       MOSUNNY   95  60  31 S13       29.94F HX  95
HOBBS          MOSUNNY   91  55  29 VRB5      30.00


$$



USA.gov is the U.S. government's official web portal to all federal, state and local government web resources and services.